Greensboro, NC

2:07 AM EDT on July 30, 2016 (GMT -0400)
Piedmont Triad International

Weather History for KGSO - February, 2014

Change the Weather History Date:

Wednesday, February 12, 2014

  Actual Average Record
Temperature  
Mean Temperature 23 °F 42 °F  
Max Temperature 25 °F 52 °F 73 °F (1999)
Min Temperature 20 °F 32 °F 5 °F (1936)
Degree Days  
Heating Degree Days 42 23  
Month to date heating degree days 302 290  
Since 1 July heating degree days 2640 2513  
Cooling Degree Days 0 0  
Month to date cooling degree days 0 0  
Year to date cooling degree days 0 0  
Moisture  
Dew Point 15 °F    
Average Humidity 70    
Maximum Humidity 84    
Minimum Humidity 55    
Precipitation  
Precipitation 0.68 in 0.09 in 0.86 in (1993)
Month to date precipitation 1.14 1.17  
Year to date precipitation 5.12 4.23  
Snow  
Snow 7.00 in 0.10 in 7.00 in (2014)
Month to date snowfall 7.0 1.1  
Since 1 July snowfall 8.6 5.4  
Snow Depth 0.00 in    
Sea Level Pressure  
Sea Level Pressure 30.18 in    
Wind  
Wind Speed 12 mph (NE)    
Max Wind Speed 23 mph    
Max Gust Speed 30 mph    
Visibility 4 miles    
Events Fog , Rain , Snow    
T = Trace of Precipitation, MM = Missing Value Source: NWS Daily Summary

Daily Weather History Graph

Daily Weather History Graph

Search for Another Location

Airport or City:

Trip Planner

Search our weather history database for the weather conditions in past years. The results will help you decide how hot, cold, wet, or windy it might be!

Date:

Astronomy

Feb. 12, 2014 Rise Set
Actual Time 7:10 AM EST 5:58 PM EST
Civil Twilight 6:44 AM EST 6:24 PM EST
Nautical Twilight 6:13 AM EST 6:54 PM EST
Astronomical Twilight 5:43 AM EST 7:24 PM EST
Moon 4:11 PM EST (2/12) 5:24 AM EST (2/12)
Length of Visible Light 11h 40m
Length of Day
10h 47m
Waxing Gibbous, 95% of the Moon is Illuminated
Feb 12
Waxing Gibbous
Feb 14
Full
Feb 22
Last Quarter
Mar 1
New
Mar 8
First Quarter

Hourly Weather History & Observations

Time (EST) Temp. Windchill Dew Point Humidity Pressure Visibility Wind Dir Wind Speed Gust Speed Precip Events Conditions
12:54 AM 25.0 °F 18.1 °F 12.9 °F 60% 30.39 in 10.0 mi NE 5.8 mph - N/A   Mostly Cloudy
1:54 AM 25.0 °F 16.3 °F 14.0 °F 63% 30.38 in 10.0 mi ENE 8.1 mph - N/A   Mostly Cloudy
2:54 AM 24.1 °F 17.0 °F 12.9 °F 62% 30.39 in 10.0 mi ENE 5.8 mph - N/A   Mostly Cloudy
3:54 AM 24.1 °F 14.4 °F 12.9 °F 62% 30.39 in 10.0 mi ENE 9.2 mph - N/A   Overcast
4:54 AM 24.1 °F 13.1 °F 12.0 °F 60% 30.38 in 10.0 mi ENE 11.5 mph - N/A   Overcast
5:54 AM 24.1 °F 13.7 °F 12.0 °F 60% 30.38 in 10.0 mi ENE 10.4 mph - N/A   Mostly Cloudy
6:54 AM 23.0 °F 10.6 °F 12.0 °F 63% 30.38 in 10.0 mi ENE 13.8 mph - N/A   Overcast
7:54 AM 23.0 °F 10.1 °F 10.9 °F 60% 30.40 in 10.0 mi ENE 15.0 mph - N/A   Overcast
8:54 AM 24.1 °F 11.5 °F 10.0 °F 55% 30.41 in 10.0 mi ENE 15.0 mph - N/A   Overcast
9:54 AM 24.1 °F 14.4 °F 10.0 °F 55% 30.42 in 10.0 mi NE 9.2 mph - N/A   Overcast
10:54 AM 24.1 °F 11.5 °F 10.0 °F 55% 30.39 in 10.0 mi ENE 15.0 mph - N/A   Overcast
11:54 AM 24.1 °F 14.4 °F 10.0 °F 55% 30.35 in 10.0 mi NE 9.2 mph 19.6 mph N/A   Overcast
12:54 PM 24.1 °F 12.0 °F 12.0 °F 60% 30.32 in 3.0 mi ENE 13.8 mph - 0.00 in Snow Light Snow
1:00 PM 24.8 °F 13.4 °F 12.2 °F 59% 30.29 in 2.0 mi ENE 12.7 mph - 0.00 in Snow Light Snow
1:14 PM 23.0 °F 10.1 °F 14.0 °F 68% 30.28 in 1.8 mi NE 15.0 mph - 0.00 in Snow Light Snow
1:25 PM 21.2 °F 8.3 °F 15.8 °F 80% 30.27 in 1.0 mi NE 13.8 mph - 0.00 in Snow Light Snow
1:37 PM 21.2 °F 6.8 °F 15.8 °F 80% 30.27 in 0.5 mi NE 17.3 mph - 0.01 in Snow Snow
1:54 PM 21.0 °F 9.3 °F 17.1 °F 85% 30.27 in 0.2 mi NE 11.5 mph - 0.02 in Fog , Snow Snow
2:01 PM 21.2 °F 10.9 °F 17.6 °F 86% 30.23 in 0.2 mi NE 9.2 mph - 0.01 in Fog , Snow Snow
2:54 PM 21.0 °F 9.3 °F 17.1 °F 85% 30.23 in 0.2 mi NE 11.5 mph - 0.08 in Fog , Snow Heavy Snow
3:19 PM 21.2 °F 8.3 °F 17.6 °F 86% 30.18 in 0.2 mi NE 13.8 mph - 0.05 in Fog , Snow Heavy Snow
3:36 PM 21.2 °F 10.1 °F 17.6 °F 86% 30.17 in 0.2 mi NE 10.4 mph 20.7 mph 0.08 in Fog , Snow Heavy Snow
3:54 PM 21.0 °F 8.1 °F 17.1 °F 85% 30.18 in 0.2 mi NE 13.8 mph 26.5 mph 0.10 in Fog , Snow Snow
4:16 PM 21.2 °F 7.3 °F 15.8 °F 80% 30.13 in 0.5 mi NE 16.1 mph 24.2 mph 0.01 in Snow Snow
4:29 PM 21.2 °F 7.8 °F 17.6 °F 86% 30.12 in 0.8 mi NNE 15.0 mph 20.7 mph 0.02 in Snow Light Snow
4:54 PM 21.0 °F 7.6 °F 16.0 °F 81% 30.14 in 0.8 mi NNE 15.0 mph 21.9 mph 0.04 in Snow Light Snow
5:04 PM 21.2 °F 9.5 °F 17.6 °F 86% 30.09 in 0.5 mi NNE 11.5 mph - 0.01 in Fog , Snow Snow
5:54 PM 21.0 °F 8.6 °F 17.1 °F 85% 30.11 in 0.8 mi NNE 12.7 mph - 0.05 in Snow Light Snow
6:54 PM 21.0 °F 7.6 °F 17.1 °F 85% 30.09 in 2.0 mi NNE 15.0 mph - 0.08 in Snow Light Snow
7:18 PM 21.2 °F 6.8 °F 17.6 °F 86% 30.02 in 2.0 mi NNE 17.3 mph 25.3 mph 0.01 in Rain , Snow Light Freezing Rain
7:43 PM 21.2 °F 6.4 °F 17.6 °F 86% 29.99 in 2.0 mi NE 18.4 mph 27.6 mph 0.03 in Rain , Snow Light Freezing Rain
7:54 PM 21.9 °F 6.5 °F 17.1 °F 82% 30.02 in 2.0 mi NNE 20.7 mph 29.9 mph 0.03 in Rain , Snow Light Freezing Rain
8:25 PM 21.2 °F 7.3 °F 17.6 °F 86% 29.97 in 2.0 mi NNE 16.1 mph 23.0 mph 0.02 in Rain , Snow Light Freezing Rain
8:42 PM 21.2 °F 7.3 °F 17.6 °F 86% 29.95 in 2.0 mi NE 16.1 mph 25.3 mph 0.03 in Rain , Snow Light Freezing Rain
8:54 PM 21.9 °F 8.7 °F 18.0 °F 85% 29.98 in 1.5 mi NNE 15.0 mph 26.5 mph 0.04 in Rain , Snow Light Freezing Rain
9:45 PM 21.2 °F 8.3 °F 17.6 °F 86% 29.92 in 1.2 mi NNE 13.8 mph 21.9 mph 0.04 in Rain , Snow Light Freezing Rain
9:54 PM 21.9 °F 11.0 °F 18.0 °F 85% 29.95 in 1.0 mi NNE 10.4 mph 20.7 mph 0.05 in Rain , Snow Light Freezing Rain
10:05 PM 21.2 °F 9.5 °F 17.6 °F 86% 29.92 in 0.8 mi NNE 11.5 mph - 0.01 in Rain , Snow Light Freezing Rain
10:37 PM 21.2 °F 7.8 °F 17.6 °F 86% 29.87 in 1.0 mi NNE 15.0 mph 21.9 mph 0.04 in Rain , Snow Light Freezing Rain
10:54 PM 21.9 °F 8.7 °F 18.0 °F 85% 29.89 in 1.0 mi NNE 15.0 mph 23.0 mph 0.05 in Rain , Snow Light Freezing Rain
11:10 PM 21.2 °F 6.4 °F 17.6 °F 86% 29.84 in 1.0 mi NNE 18.4 mph 25.3 mph 0.01 in Rain , Snow Light Freezing Rain
11:43 PM 21.2 °F 9.5 °F 19.4 °F 93% 29.82 in 1.0 mi North 11.5 mph 20.7 mph 0.08 in Rain , Snow Light Freezing Rain
11:54 PM 21.9 °F 11.7 °F 19.0 °F 89% 29.86 in 1.5 mi NNE 9.2 mph - 0.12 in Rain , Snow Light Freezing Rain